PBO Station Position Time Series. Reference Frame : NAM14
Format Version,1.1.0
4-character ID,SMM2
Station name,SummitCanpGL2013
Begin Date, 2013-07-08
End Date, 2021-07-25
Release Date, 2022-01-27
Reference position, 72.5796399332 North Latitude, -38.4605515451 East Longitude, 3257.55536 meters elevation,
Date, North (mm), East (mm), Vertical (mm), North Std. Deviation (mm), East Std. Deviation (mm),              Vertical Std. Deviation (mm), Quality,
2013-07-08,0.00, 0.00, 0.00, 3.92, 2.67, 17.11, repro,
2013-07-09,4478.67, -29290.80, 4379.88, 2.91, 2.11, 12.71, repro,
2013-07-12,4840.74, -29093.03, 4383.90, 5.28, 3.82, 22.13, repro,
2013-07-13,4835.56, -29088.95, 4380.28, 2.14, 1.56, 9.06, repro,
2013-07-14,4835.33, -29089.73, 4374.11, 2.21, 1.59, 9.26, repro,
2013-07-15,4836.20, -29088.84, 4379.71, 2.18, 1.60, 9.74, repro,
2013-07-16,4837.89, -29088.50, 4375.55, 2.13, 1.60, 9.34, repro,
2013-07-17,4836.85, -29088.29, 4374.26, 2.05, 1.50, 8.69, repro,
2013-07-18,4839.32, -29085.79, 4371.62, 2.21, 1.61, 9.18, repro,
2013-07-19,4837.81, -29088.02, 4368.46, 2.29, 1.70, 9.94, repro,
2013-07-20,4838.67, -29086.47, 4365.33, 2.07, 1.51, 8.75, repro,
2013-07-21,4841.11, -29087.07, 4368.18, 2.12, 1.60, 9.36, repro,
2013-07-22,4840.26, -29086.51, 4367.05, 2.05, 1.54, 8.83, repro,
2013-07-23,4837.20, -29086.22, 4362.28, 2.11, 1.53, 9.05, repro,
2013-07-24,4836.89, -29087.25, 4363.64, 2.17, 1.59, 9.12, repro,
2013-07-25,4837.71, -29086.06, 4353.73, 2.29, 1.68, 9.42, repro,
2013-07-26,4837.31, -29086.59, 4358.73, 2.42, 1.83, 10.45, repro,
2013-07-27,4838.30, -29086.65, 4361.08, 2.21, 1.63, 9.76, repro,
2013-07-28,4838.39, -29086.83, 4359.41, 2.19, 1.58, 9.14, repro,
2013-07-29,4838.02, -29086.75, 4357.04, 2.05, 1.51, 8.70, repro,
2013-07-30,4837.30, -29086.26, 4352.35, 2.10, 1.55, 8.94, repro,
2013-07-31,4839.39, -29086.04, 4350.11, 2.23, 1.68, 9.65, repro,
2013-08-01,4841.06, -29084.80, 4354.20, 2.08, 1.58, 9.28, repro,
2013-08-02,4839.49, -29084.09, 4354.45, 2.08, 1.52, 8.98, repro,
2013-08-03,4838.35, -29084.15, 4351.63, 2.10, 1.51, 8.81, repro,
2013-08-04,4839.27, -29084.41, 4352.69, 2.19, 1.62, 9.27, repro,
2013-08-05,4836.76, -29084.84, 4348.57, 2.39, 1.75, 10.10, repro,
2013-08-06,4836.83, -29083.99, 4351.99, 2.09, 1.53, 8.93, repro,
2013-08-07,4837.92, -29084.01, 4354.76, 2.04, 1.51, 8.73, repro,
2013-08-08,4836.43, -29083.25, 4353.58, 2.11, 1.57, 8.88, repro,
2013-08-09,4837.63, -29083.61, 4353.51, 2.09, 1.51, 8.80, repro,
2013-08-10,4834.91, -29084.13, 4345.90, 2.16, 1.54, 9.14, repro,
2013-08-11,4835.08, -29083.46, 4343.63, 2.05, 1.51, 8.68, repro,
2013-08-12,4837.60, -29081.90, 4342.60, 2.06, 1.53, 8.76, repro,
2013-08-13,4836.12, -29082.85, 4339.48, 2.16, 1.61, 9.17, repro,
2013-08-14,4835.93, -29081.91, 4347.35, 2.14, 1.53, 8.90, repro,
2013-08-15,4835.65, -29083.17, 4344.32, 2.17, 1.57, 9.23, repro,
2013-08-16,4834.57, -29082.21, 4348.36, 2.63, 1.90, 11.28, repro,
2013-08-17,4834.22, -29081.42, 4345.88, 2.10, 1.54, 8.84, repro,
2013-08-18,4835.73, -29082.83, 4348.55, 2.18, 1.59, 9.39, repro,
2013-08-19,4835.65, -29083.45, 4350.25, 2.11, 1.59, 9.06, repro,
2013-08-20,4834.54, -29082.69, 4347.84, 2.08, 1.53, 8.95, repro,
2013-08-21,4833.98, -29080.25, 4339.08, 2.41, 1.85, 10.45, repro,
2013-08-22,4832.70, -29081.72, 4344.93, 2.32, 1.69, 9.64, repro,
2013-08-23,4833.74, -29082.40, 4339.36, 2.26, 1.66, 9.72, repro,
2013-08-24,4835.76, -29082.02, 4337.52, 2.38, 1.85, 9.92, repro,
2013-08-25,4836.33, -29082.12, 4339.34, 2.36, 1.85, 10.85, repro,
2013-08-26,4833.87, -29080.22, 4334.25, 2.12, 1.57, 9.08, repro,
2013-08-27,4833.06, -29080.53, 4334.13, 2.28, 1.66, 9.95, repro,
2013-08-28,4833.17, -29080.97, 4333.73, 2.15, 1.57, 9.09, repro,
2013-08-29,4832.95, -29080.91, 4337.72, 2.13, 1.54, 9.01, repro,
2013-08-30,4834.27, -29081.42, 4341.31, 2.26, 1.69, 9.61, repro,
2013-08-31,4834.47, -29080.48, 4334.09, 2.25, 1.68, 9.45, repro,
2013-09-01,4833.86, -29080.63, 4334.41, 2.26, 1.73, 10.00, repro,
2013-09-02,4832.78, -29080.51, 4334.74, 2.21, 1.64, 9.55, repro,
2013-09-03,4833.06, -29079.18, 4328.60, 2.16, 1.58, 9.10, repro,
2013-09-04,4833.14, -29079.84, 4324.98, 2.17, 1.55, 9.36, repro,
2013-09-05,4833.05, -29078.21, 4324.32, 2.12, 1.51, 8.82, repro,
2013-09-06,4835.73, -29078.35, 4324.73, 2.29, 1.64, 9.46, repro,
2013-09-07,4833.56, -29078.81, 4320.90, 2.04, 1.49, 8.61, repro,
2013-09-08,4833.01, -29078.31, 4325.56, 2.18, 1.56, 9.09, repro,
2013-09-09,4832.64, -29078.12, 4317.17, 2.06, 1.53, 8.89, repro,
2013-10-26,4834.51, -29072.31, 4278.98, 4.89, 3.82, 22.26, repro,
2013-10-27,4833.89, -29070.68, 4285.13, 2.41, 1.70, 10.28, repro,
2013-10-28,4832.64, -29071.80, 4287.21, 2.43, 1.76, 10.07, repro,
2013-10-29,4833.29, -29070.57, 4285.06, 2.60, 1.95, 11.49, repro,
2013-10-30,4831.02, -29071.28, 4277.47, 2.96, 2.20, 12.12, repro,
2013-10-31,4834.62, -29070.78, 4285.39, 2.53, 1.81, 10.86, repro,
2013-11-01,4832.70, -29071.00, 4287.45, 2.72, 1.96, 11.54, repro,
2013-11-02,4832.64, -29068.89, 4288.41, 2.52, 1.77, 10.74, repro,
2013-11-03,4830.18, -29069.34, 4296.29, 2.65, 1.88, 11.21, repro,
2013-11-04,4831.78, -29070.18, 4296.04, 2.90, 2.07, 12.17, repro,
2013-11-05,4832.49, -29070.70, 4293.15, 2.38, 1.70, 10.29, repro,
2013-11-06,4833.56, -29069.73, 4291.65, 2.32, 1.67, 10.05, repro,
2013-11-07,4832.98, -29069.10, 4283.63, 3.01, 2.28, 13.08, repro,
2013-11-08,4833.12, -29068.12, 4285.69, 2.38, 1.67, 9.97, repro,
2013-11-09,4831.29, -29068.47, 4275.05, 2.86, 2.15, 12.85, repro,
2013-11-10,4834.72, -29067.42, 4282.86, 2.68, 2.09, 13.05, repro,
2013-11-11,4838.17, -29071.32, 4280.90, 3.42, 2.27, 13.97, repro,
2013-11-12,4834.46, -29068.69, 4281.47, 2.34, 1.64, 9.88, repro,
2013-11-13,4833.78, -29066.17, 4281.26, 2.26, 1.64, 9.81, repro,
2013-11-14,4834.25, -29066.84, 4281.94, 2.46, 1.74, 10.18, repro,
2013-11-15,4835.31, -29066.20, 4283.54, 2.77, 2.12, 12.41, repro,
2013-11-16,4838.08, -29069.82, 4284.93, 2.73, 1.98, 11.40, repro,
2013-11-17,4834.77, -29069.36, 4279.18, 2.46, 1.70, 10.32, repro,
2013-11-18,4835.30, -29067.09, 4280.36, 2.30, 1.64, 9.82, repro,
2013-11-19,4836.79, -29067.58, 4282.42, 2.50, 1.80, 10.62, repro,
2013-11-20,4837.19, -29069.77, 4283.26, 2.51, 1.76, 10.47, repro,
2013-11-21,4837.48, -29068.62, 4279.48, 2.37, 1.66, 9.94, repro,
2013-11-22,4833.22, -29067.68, 4272.98, 2.31, 1.66, 9.94, repro,
2013-11-23,4833.20, -29066.79, 4273.49, 2.54, 1.93, 11.45, repro,
2013-11-24,4835.50, -29066.25, 4276.34, 2.34, 1.61, 9.78, repro,
2013-11-25,4838.58, -29068.78, 4273.15, 2.29, 1.59, 9.73, repro,
2013-11-26,4838.51, -29068.26, 4279.17, 2.23, 1.59, 9.69, repro,
2013-11-27,4838.10, -29069.40, 4279.57, 2.25, 1.59, 9.56, repro,
2013-11-28,4835.36, -29067.88, 4273.51, 2.20, 1.58, 9.55, repro,
2013-11-29,4837.46, -29066.03, 4282.29, 2.63, 1.93, 11.55, repro,
2013-11-30,4836.44, -29065.25, 4274.78, 2.59, 1.96, 11.33, repro,
2013-12-01,4834.25, -29066.20, 4280.81, 2.51, 1.77, 10.69, repro,
2013-12-02,4834.50, -29067.55, 4282.11, 2.29, 1.66, 9.68, repro,
2013-12-03,4832.45, -29063.93, 4269.06, 2.49, 1.85, 11.08, repro,
2013-12-04,4833.33, -29066.51, 4263.76, 2.40, 1.67, 10.04, repro,
2013-12-05,4833.49, -29066.25, 4260.00, 2.35, 1.67, 10.28, repro,
2013-12-06,4835.82, -29064.81, 4268.42, 2.40, 1.68, 10.07, repro,
2013-12-07,4835.14, -29064.98, 4274.00, 2.50, 1.74, 10.54, repro,
2013-12-08,4835.36, -29064.20, 4282.49, 2.93, 2.07, 13.43, repro,
2013-12-09,4837.16, -29065.03, 4278.05, 2.32, 1.69, 10.12, repro,
2013-12-10,4838.57, -29064.06, 4270.85, 2.34, 1.72, 10.47, repro,
2013-12-11,4838.59, -29063.66, 4259.24, 2.28, 1.60, 9.85, repro,
2013-12-12,4836.10, -29065.10, 4266.01, 2.27, 1.60, 9.85, repro,
2013-12-13,4838.97, -29064.59, 4274.46, 2.26, 1.63, 9.71, repro,
2013-12-14,4838.73, -29063.57, 4275.63, 2.90, 2.00, 12.97, repro,
2013-12-15,4837.04, -29064.06, 4277.49, 2.46, 1.79, 10.56, repro,
2013-12-16,4838.42, -29064.01, 4272.92, 2.41, 1.70, 10.35, repro,
2013-12-17,4837.98, -29064.30, 4275.89, 2.42, 1.70, 10.58, repro,
2013-12-18,4840.51, -29064.18, 4274.37, 2.43, 1.76, 10.19, repro,
2013-12-19,4836.75, -29062.66, 4278.53, 2.60, 1.75, 11.03, repro,
2013-12-20,4841.96, -29064.41, 4276.09, 2.39, 1.68, 10.41, repro,
2013-12-21,4840.87, -29062.91, 4268.62, 2.25, 1.61, 9.90, repro,
2013-12-22,4840.58, -29063.60, 4269.06, 2.28, 1.61, 9.97, repro,
2013-12-23,4838.48, -29063.31, 4264.94, 2.23, 1.58, 9.66, repro,
2013-12-24,4838.38, -29062.55, 4267.83, 2.24, 1.57, 9.63, repro,
2013-12-25,4837.40, -29061.51, 4263.24, 2.61, 1.76, 11.38, repro,
2013-12-26,4839.20, -29062.85, 4262.70, 2.24, 1.57, 9.71, repro,
2013-12-27,4841.09, -29062.80, 4262.33, 2.25, 1.57, 9.76, repro,
2013-12-28,4841.31, -29062.74, 4263.28, 2.27, 1.63, 9.99, repro,
2013-12-29,4838.99, -29061.68, 4252.96, 2.35, 1.66, 9.97, repro,
2013-12-30,4840.53, -29061.32, 4259.85, 2.35, 1.70, 10.15, repro,
2013-12-31,4839.72, -29060.81, 4253.42, 2.40, 1.72, 10.51, repro,
2014-01-01,4844.50, -29060.45, 4250.11, 2.95, 2.04, 12.62, repro,
2014-01-02,4842.58, -29061.05, 4260.84, 2.70, 2.02, 12.37, repro,
2014-01-03,4840.25, -29060.51, 4262.35, 2.59, 1.84, 11.05, repro,
2014-01-04,4840.47, -29060.85, 4256.62, 2.34, 1.69, 10.04, repro,
2014-01-05,4839.48, -29060.85, 4252.91, 2.31, 1.59, 9.96, repro,
2014-01-06,4840.92, -29060.73, 4255.63, 2.32, 1.61, 9.84, repro,
2014-01-07,4843.37, -29060.08, 4249.64, 2.50, 1.71, 10.99, repro,
2014-01-08,4841.69, -29061.00, 4259.19, 2.40, 1.72, 10.70, repro,
2014-01-09,4840.51, -29061.53, 4262.82, 2.66, 1.87, 11.33, repro,
2014-01-10,4842.06, -29060.61, 4254.96, 2.38, 1.64, 10.34, repro,
2014-01-11,4841.69, -29060.89, 4261.52, 2.41, 1.66, 10.09, repro,
2014-01-12,4842.40, -29058.31, 4251.93, 2.66, 1.89, 11.20, repro,
2014-01-13,4844.17, -29063.02, 4259.87, 2.58, 1.79, 11.01, repro,
2014-01-14,4842.89, -29060.40, 4257.22, 3.07, 2.17, 13.18, repro,
2014-01-15,4840.49, -29059.38, 4258.98, 2.29, 1.64, 10.38, repro,
2014-01-16,4842.13, -29060.62, 4252.61, 2.30, 1.64, 10.02, repro,
2014-01-17,4841.50, -29059.71, 4253.74, 2.49, 1.77, 10.66, repro,
2014-01-18,4841.56, -29060.26, 4251.82, 2.27, 1.59, 9.94, repro,
2014-01-19,4841.90, -29059.76, 4251.58, 2.24, 1.60, 9.78, repro,
2014-01-20,4842.26, -29060.07, 4252.26, 2.28, 1.66, 10.01, repro,
2014-01-21,4839.83, -29058.73, 4258.63, 2.68, 2.01, 12.19, repro,
2014-01-22,4843.91, -29058.59, 4254.00, 2.58, 1.90, 11.09, repro,
2014-01-23,4840.84, -29057.92, 4248.29, 2.37, 1.72, 10.37, repro,
2014-01-24,4843.51, -29057.63, 4261.96, 2.48, 1.75, 10.84, repro,
2014-01-25,4843.28, -29057.35, 4261.93, 2.57, 1.87, 11.91, repro,
2014-01-26,4843.08, -29059.85, 4247.88, 2.41, 1.68, 10.25, repro,
2014-01-27,4843.06, -29059.94, 4242.65, 2.25, 1.62, 9.73, repro,
2014-01-28,4842.51, -29058.55, 4245.77, 2.49, 1.81, 10.70, repro,
2014-01-29,4846.36, -29059.80, 4257.73, 2.44, 1.76, 10.56, repro,
2014-01-30,4842.39, -29059.13, 4261.97, 2.29, 1.61, 9.89, repro,
2014-01-31,4841.40, -29058.21, 4259.86, 2.29, 1.64, 9.79, repro,
2014-02-01,4841.35, -29057.38, 4253.38, 2.37, 1.71, 10.26, repro,
2014-02-02,4842.02, -29058.86, 4249.78, 2.38, 1.70, 10.05, repro,
2014-02-03,4842.97, -29057.08, 4249.49, 2.78, 1.94, 11.84, repro,
2014-02-04,4842.31, -29056.23, 4245.90, 2.49, 1.77, 10.52, repro,
2014-02-05,4840.73, -29056.75, 4253.85, 2.40, 1.72, 10.54, repro,
2014-02-06,4841.69, -29057.45, 4251.40, 3.16, 2.28, 13.85, repro,
2014-02-07,4844.72, -29057.18, 4247.54, 2.76, 1.94, 11.37, repro,
2014-02-08,4845.26, -29056.14, 4256.84, 3.12, 2.23, 12.82, repro,
2014-02-09,4841.76, -29056.79, 4253.23, 2.81, 1.99, 12.30, repro,
2014-02-10,4841.57, -29055.79, 4256.80, 3.02, 2.12, 13.19, repro,
2014-02-11,4845.56, -29058.92, 4256.87, 2.71, 1.89, 11.90, repro,
2014-02-12,4841.96, -29058.12, 4256.75, 3.11, 2.15, 12.96, repro,
2014-02-13,4844.24, -29059.14, 4260.04, 2.43, 1.70, 10.46, repro,
2014-02-14,4843.53, -29058.43, 4251.18, 2.34, 1.62, 9.96, repro,
2014-02-15,4842.84, -29058.26, 4256.93, 2.61, 1.86, 10.73, repro,
2014-02-16,4840.07, -29060.41, 4257.32, 2.82, 1.96, 11.85, repro,
2014-02-17,4843.01, -29057.44, 4252.17, 2.33, 1.63, 9.94, repro,
2014-02-18,4839.93, -29057.29, 4251.99, 2.89, 2.01, 12.14, repro,
2014-02-19,4844.99, -29057.39, 4248.15, 3.15, 2.44, 14.82, repro,
2014-02-20,4844.08, -29057.11, 4245.07, 3.31, 2.35, 14.56, repro,
2014-02-21,4842.84, -29053.26, 4246.18, 2.96, 2.06, 12.62, repro,
2014-02-22,4844.42, -29056.65, 4248.18, 2.86, 2.08, 12.59, repro,
2014-02-23,4839.67, -29053.98, 4244.09, 3.08, 2.34, 13.99, repro,
2014-02-24,4841.95, -29056.42, 4253.33, 2.45, 1.78, 10.71, repro,
2014-02-25,4843.21, -29054.85, 4246.75, 2.42, 1.75, 10.68, repro,
2014-02-26,4843.97, -29053.49, 4244.45, 2.50, 1.79, 10.64, repro,
2014-02-27,4839.65, -29053.25, 4237.83, 3.71, 2.48, 14.08, repro,
2014-02-28,4839.52, -29054.85, 4239.76, 2.60, 1.90, 11.52, repro,
2014-03-01,4840.76, -29055.08, 4240.16, 2.66, 1.79, 11.47, repro,
2014-03-02,4842.51, -29056.42, 4243.48, 2.60, 1.80, 11.27, repro,
2014-03-03,4843.84, -29056.15, 4254.21, 2.91, 2.21, 13.81, repro,
2014-03-04,4840.30, -29055.46, 4247.66, 2.84, 2.29, 13.84, repro,
2014-03-05,4842.69, -29055.10, 4243.05, 3.78, 2.62, 14.99, repro,
2014-03-06,4839.30, -29054.41, 4251.11, 2.88, 2.12, 12.16, repro,
2014-03-07,4839.76, -29055.73, 4250.18, 2.85, 1.94, 12.00, repro,
2014-03-08,4840.31, -29053.05, 4253.61, 2.84, 1.99, 11.81, repro,
2014-03-09,4843.42, -29052.84, 4246.68, 2.74, 1.89, 11.69, repro,
2014-03-10,4841.74, -29054.30, 4238.78, 2.79, 1.89, 12.29, repro,
2014-03-11,4840.70, -29051.32, 4241.42, 2.86, 2.04, 11.67, repro,
2014-03-12,4840.64, -29051.56, 4240.59, 2.81, 1.91, 12.07, repro,
2014-03-13,4842.76, -29053.31, 4242.66, 2.58, 1.97, 12.04, repro,
2014-03-14,4840.00, -29051.71, 4243.56, 2.52, 1.80, 11.51, repro,
2014-03-15,4841.66, -29051.83, 4248.55, 2.41, 1.67, 10.68, repro,
2014-03-16,4840.61, -29052.95, 4242.41, 2.31, 1.63, 10.15, repro,
2014-03-17,4842.01, -29053.61, 4229.08, 2.43, 1.75, 10.75, repro,
2014-03-26,4845.27, -29058.88, 4247.76, 6.34, 5.20, 27.45, repro,
2014-03-27,4844.00, -29051.81, 4229.18, 2.47, 1.84, 11.00, repro,
2014-03-28,4844.51, -29051.79, 4229.82, 2.36, 1.69, 9.58, repro,
2014-03-29,4846.90, -29050.80, 4232.26, 2.43, 1.72, 10.56, repro,
2014-03-30,4843.74, -29051.13, 4223.22, 2.16, 1.58, 9.13, repro,
2014-03-31,4843.71, -29051.78, 4220.86, 2.34, 1.69, 9.76, repro,
2014-04-01,4844.73, -29053.83, 4231.87, 2.46, 1.79, 10.42, repro,
2014-04-02,4847.82, -29052.64, 4232.26, 2.48, 1.75, 10.11, repro,
2014-04-03,4849.02, -29052.23, 4226.09, 2.44, 1.76, 10.24, repro,
2014-04-04,4847.43, -29052.49, 4233.31, 2.21, 1.65, 9.66, repro,
2014-04-05,4847.11, -29050.44, 4237.31, 2.46, 1.84, 10.86, repro,
2014-05-13,4847.11, -29052.71, 4217.12, 3.15, 2.27, 13.31, repro,
2014-05-14,4845.55, -29049.03, 4213.81, 2.17, 1.59, 9.23, repro,
2014-05-15,4846.23, -29048.25, 4214.88, 2.19, 1.61, 9.19, repro,
2014-05-16,4846.25, -29047.97, 4219.45, 2.23, 1.61, 9.62, repro,
2014-05-17,4847.90, -29049.16, 4220.05, 2.10, 1.51, 8.85, repro,
2014-05-18,4847.53, -29049.40, 4223.76, 2.09, 1.53, 8.90, repro,
2014-05-19,4847.27, -29049.65, 4212.85, 2.11, 1.55, 8.90, repro,
2014-05-20,4846.84, -29050.81, 4213.22, 2.14, 1.57, 9.10, repro,
2014-05-21,4848.33, -29050.09, 4218.07, 2.15, 1.61, 9.19, repro,
2014-05-22,4848.45, -29048.35, 4214.04, 2.22, 1.64, 9.34, repro,
2014-05-23,4847.01, -29048.68, 4218.80, 2.28, 1.63, 9.50, repro,
2014-05-24,4848.14, -29047.49, 4219.69, 2.14, 1.58, 9.10, repro,
2014-05-25,4848.43, -29048.49, 4209.88, 2.16, 1.59, 9.18, repro,
2014-05-26,4847.59, -29048.61, 4210.40, 2.13, 1.55, 9.17, repro,
2014-05-27,4848.90, -29048.11, 4211.17, 2.11, 1.55, 9.13, repro,
2014-05-28,4849.08, -29048.31, 4212.34, 2.14, 1.56, 8.90, repro,
2014-05-29,4848.53, -29048.34, 4218.29, 2.15, 1.60, 8.97, repro,
2014-05-30,4849.03, -29046.58, 4213.35, 2.28, 1.69, 9.71, repro,
2014-05-31,4849.23, -29047.68, 4213.47, 2.07, 1.49, 8.79, repro,
2014-06-01,4849.98, -29047.04, 4212.87, 2.08, 1.50, 8.73, repro,
2014-06-02,4848.85, -29047.15, 4213.92, 2.08, 1.50, 8.84, repro,
2014-06-03,4848.90, -29048.24, 4210.34, 2.08, 1.51, 8.77, repro,
2014-06-04,4851.08, -29048.17, 4214.67, 2.13, 1.58, 8.98, repro,
2014-06-05,4851.36, -29047.88, 4213.29, 2.09, 1.52, 8.90, repro,
2014-06-06,4852.72, -29049.33, 4210.42, 2.08, 1.53, 8.82, repro,
2014-06-07,4850.97, -29049.56, 4215.04, 2.13, 1.52, 8.98, repro,
2014-06-08,4849.79, -29049.54, 4215.37, 2.54, 1.88, 11.40, repro,
2014-06-09,4851.37, -29047.58, 4204.81, 2.24, 1.71, 9.73, repro,
2014-06-10,4852.00, -29049.00, 4208.16, 2.13, 1.60, 9.02, repro,
2014-06-11,4851.58, -29047.39, 4202.43, 2.40, 1.76, 10.63, repro,
2014-06-12,4850.58, -29048.77, 4197.82, 2.41, 1.74, 10.32, repro,
2014-06-13,4852.55, -29048.14, 4214.14, 2.30, 1.60, 9.69, repro,
2014-06-14,4853.81, -29048.50, 4207.80, 2.38, 1.71, 10.14, repro,
2014-06-15,4852.36, -29048.65, 4206.25, 2.11, 1.54, 8.78, repro,
2014-06-16,4851.68, -29047.57, 4204.03, 2.11, 1.57, 9.02, repro,
2014-06-17,4851.78, -29047.16, 4205.58, 2.14, 1.54, 8.93, repro,
2014-06-18,4852.65, -29046.73, 4204.81, 2.21, 1.60, 9.37, repro,
2014-06-19,4851.21, -29047.68, 4207.97, 2.25, 1.58, 9.35, repro,
2014-06-20,4851.85, -29046.48, 4200.22, 2.20, 1.61, 9.31, repro,
2014-06-21,4849.85, -29045.36, 4206.18, 2.14, 1.54, 9.06, repro,
2014-06-22,4851.58, -29046.49, 4209.46, 2.13, 1.52, 8.85, repro,
2014-06-23,4852.10, -29045.36, 4206.90, 2.06, 1.49, 8.67, repro,
2014-06-24,4851.09, -29046.18, 4206.63, 2.14, 1.55, 9.09, repro,
2014-06-25,4850.56, -29044.53, 4202.01, 2.07, 1.51, 8.72, repro,
2014-06-26,4852.62, -29044.86, 4207.25, 2.08, 1.51, 8.71, repro,
2014-06-27,4851.60, -29045.49, 4210.16, 2.09, 1.53, 8.80, repro,
2014-06-28,4851.13, -29045.98, 4206.64, 2.12, 1.55, 9.13, repro,
2014-06-29,4852.31, -29045.93, 4205.79, 2.09, 1.52, 8.65, repro,
2014-06-30,4852.46, -29044.44, 4203.37, 2.15, 1.56, 9.01, repro,
2014-07-01,4851.20, -29044.83, 4203.11, 2.07, 1.49, 8.61, repro,
2014-07-02,4851.56, -29043.79, 4201.57, 2.07, 1.49, 8.60, repro,
2014-07-03,4849.07, -29042.89, 4195.46, 2.14, 1.55, 8.76, repro,
2014-07-04,4849.08, -29044.45, 4204.20, 2.08, 1.52, 8.61, repro,
2014-07-05,4849.71, -29044.07, 4204.34, 2.04, 1.48, 8.44, repro,
2014-07-06,4851.79, -29043.91, 4200.98, 2.02, 1.48, 8.41, repro,
2014-07-07,4852.18, -29044.99, 4203.66, 2.19, 1.63, 9.24, repro,
2014-07-08,4851.17, -29044.36, 4195.96, 2.23, 1.74, 9.31, repro,
2014-07-09,4852.37, -29043.44, 4205.64, 2.07, 1.52, 8.57, repro,
2014-07-10,4850.91, -29043.18, 4205.67, 2.10, 1.55, 9.09, repro,
2014-07-11,4851.05, -29043.64, 4205.53, 2.09, 1.52, 8.75, repro,
2014-07-12,4851.89, -29040.83, 4210.49, 2.25, 1.70, 10.11, repro,
2014-07-13,4850.11, -29040.88, 4203.80, 2.20, 1.63, 9.25, repro,
2014-07-14,4848.90, -29042.01, 4202.07, 2.08, 1.50, 8.74, repro,
2014-07-15,4849.51, -29042.31, 4206.63, 2.14, 1.57, 9.03, repro,
2014-07-16,4848.80, -29043.17, 4203.40, 2.09, 1.50, 8.64, repro,
2014-07-17,4849.31, -29041.22, 4198.05, 2.08, 1.51, 8.71, repro,
2014-07-18,4850.22, -29043.15, 4203.80, 2.03, 1.48, 8.51, repro,
2014-07-19,4848.63, -29041.57, 4197.74, 2.05, 1.48, 8.52, repro,
2014-07-20,4850.19, -29041.18, 4197.03, 2.05, 1.49, 8.51, repro,
2014-07-21,4850.61, -29040.84, 4192.20, 2.23, 1.63, 9.28, repro,
2014-07-22,4850.75, -29040.10, 4195.64, 2.06, 1.48, 8.55, repro,
2014-07-23,4851.04, -29039.98, 4193.89, 2.04, 1.49, 8.51, repro,
2014-07-24,4850.92, -29040.77, 4198.00, 2.09, 1.51, 8.71, repro,
2014-07-25,4849.99, -29041.03, 4200.97, 2.07, 1.48, 8.57, repro,
2014-07-26,4849.35, -29040.47, 4196.97, 2.16, 1.59, 9.04, repro,
2014-07-27,4849.22, -29040.79, 4200.12, 2.05, 1.48, 8.54, repro,
2014-07-28,4849.64, -29040.93, 4200.26, 2.12, 1.52, 8.73, repro,
2014-07-29,4850.83, -29040.60, 4196.83, 2.05, 1.49, 8.59, repro,
2014-07-30,4850.23, -29040.36, 4193.67, 2.12, 1.51, 8.89, repro,
2014-07-31,4850.94, -29040.31, 4194.69, 2.11, 1.55, 8.89, repro,
2014-08-01,4851.20, -29040.12, 4195.19, 2.25, 1.65, 9.29, repro,
2014-08-02,4848.87, -29039.77, 4199.59, 2.20, 1.66, 9.53, repro,
2014-08-03,4850.06, -29039.94, 4192.02, 2.19, 1.66, 9.26, repro,
2014-08-04,4849.92, -29038.93, 4193.94, 2.17, 1.59, 9.26, repro,
2014-08-05,4849.91, -29039.27, 4195.96, 2.34, 1.71, 10.16, repro,
2014-08-06,4852.02, -29039.06, 4197.37, 2.23, 1.67, 9.57, repro,
2014-08-07,4851.62, -29038.70, 4197.16, 2.27, 1.69, 9.72, repro,
2014-08-08,4851.12, -29039.96, 4198.39, 2.22, 1.63, 9.31, repro,
2014-08-09,4850.47, -29040.13, 4200.05, 2.11, 1.55, 9.01, repro,
2014-08-10,4849.59, -29039.93, 4198.15, 2.32, 1.65, 9.59, repro,
2014-08-11,4850.00, -29039.00, 4197.98, 2.13, 1.53, 8.85, repro,
2014-08-12,4850.93, -29039.14, 4200.24, 2.31, 1.69, 9.50, repro,
2014-08-13,4851.57, -29039.17, 4195.30, 2.13, 1.55, 9.11, repro,
2014-08-14,4850.93, -29041.26, 4198.73, 2.10, 1.55, 8.84, repro,
2014-08-15,4850.03, -29040.57, 4201.67, 2.13, 1.53, 8.98, repro,
2014-08-16,4850.41, -29038.78, 4192.68, 2.07, 1.50, 8.76, repro,
2014-08-17,4851.11, -29040.28, 4198.35, 2.09, 1.52, 8.81, repro,
2014-08-18,4850.06, -29038.95, 4190.69, 2.07, 1.50, 8.64, repro,
2014-08-19,4849.97, -29040.30, 4191.00, 2.16, 1.59, 9.25, repro,
2014-08-20,4849.47, -29039.64, 4191.94, 2.25, 1.61, 9.59, repro,
2014-08-21,4850.91, -29040.10, 4191.81, 2.27, 1.61, 9.62, repro,
2014-08-22,4853.21, -29039.29, 4192.83, 2.09, 1.51, 8.81, repro,
2014-08-23,4850.99, -29038.31, 4197.94, 2.07, 1.50, 8.67, repro,
2014-08-24,4851.07, -29037.77, 4199.60, 2.03, 1.50, 8.63, repro,
2014-08-25,4849.04, -29038.37, 4193.78, 2.06, 1.50, 8.72, repro,
2014-08-26,4849.46, -29038.22, 4196.67, 2.10, 1.52, 8.88, repro,
2014-08-27,4847.74, -29037.34, 4195.46, 2.25, 1.64, 9.58, repro,
2014-08-28,4850.55, -29036.93, 4195.67, 2.35, 1.77, 11.06, repro,
2014-08-29,4849.07, -29037.83, 4191.18, 2.16, 1.66, 9.67, repro,
2014-08-30,4850.29, -29035.71, 4196.39, 2.34, 1.78, 10.13, repro,
2014-08-31,4849.59, -29036.81, 4198.29, 2.34, 1.74, 10.40, repro,
2014-09-01,4851.69, -29038.48, 4192.37, 2.29, 1.67, 9.49, repro,
2014-09-02,4851.97, -29037.81, 4196.03, 2.27, 1.70, 10.10, repro,
2014-09-03,4852.26, -29037.01, 4184.29, 2.17, 1.61, 9.21, repro,
2014-09-04,4851.67, -29034.95, 4184.76, 2.13, 1.60, 9.17, repro,
2014-09-05,4850.52, -29036.46, 4185.06, 2.23, 1.69, 9.46, repro,
2014-09-06,4852.25, -29036.05, 4189.34, 2.17, 1.55, 9.16, repro,
2014-09-07,4853.13, -29036.83, 4183.08, 2.15, 1.59, 9.09, repro,
2014-09-08,4850.70, -29036.14, 4188.17, 2.15, 1.57, 8.92, repro,
2014-09-09,4852.47, -29035.64, 4190.21, 2.20, 1.58, 8.98, repro,
2014-09-10,4850.00, -29035.80, 4184.13, 2.23, 1.60, 9.27, repro,
2014-09-11,4851.04, -29034.71, 4191.89, 2.38, 1.78, 10.16, repro,
2014-09-12,4851.28, -29035.67, 4186.70, 2.49, 1.82, 10.60, repro,
2014-09-13,4850.50, -29034.89, 4189.26, 2.34, 1.69, 9.65, repro,
2014-09-14,4852.63, -29035.12, 4183.41, 2.13, 1.54, 8.75, repro,
2014-09-15,4852.72, -29034.83, 4189.94, 2.16, 1.53, 8.74, repro,
2014-09-16,4852.55, -29037.12, 4182.78, 2.28, 1.63, 9.48, repro,
2014-09-17,4850.55, -29034.70, 4184.42, 2.15, 1.51, 8.76, repro,
2014-09-18,4852.14, -29034.70, 4182.25, 2.88, 2.02, 11.17, repro,
2014-09-19,4853.64, -29034.76, 4185.29, 2.27, 1.66, 9.32, repro,
2014-09-20,4853.90, -29034.09, 4182.79, 2.25, 1.61, 9.34, repro,
2014-09-21,4852.29, -29035.30, 4187.98, 2.13, 1.55, 8.96, repro,
2014-09-22,4853.00, -29034.80, 4192.05, 2.51, 1.75, 10.27, repro,
2014-09-23,4852.21, -29035.64, 4187.62, 2.46, 1.78, 10.53, repro,
2014-09-24,4852.22, -29035.78, 4190.48, 2.37, 1.86, 10.41, repro,
2014-09-25,4854.42, -29034.98, 4188.63, 2.26, 1.72, 9.97, repro,
2014-09-26,4854.37, -29034.26, 4189.69, 2.47, 1.89, 11.06, repro,
2014-09-27,4851.83, -29034.65, 4188.73, 2.43, 1.75, 9.98, repro,
2014-09-28,4852.50, -29036.38, 4191.10, 2.53, 1.92, 10.98, repro,
2014-09-29,4851.69, -29034.89, 4184.76, 2.49, 1.92, 11.06, repro,
2014-09-30,4854.25, -29035.84, 4182.64, 2.67, 1.89, 10.98, repro,
2014-10-01,4853.79, -29035.92, 4188.36, 2.35, 1.77, 10.17, repro,
2014-10-02,4853.92, -29035.35, 4185.78, 2.39, 1.82, 10.45, repro,
2014-10-03,4853.10, -29037.27, 4179.24, 2.19, 1.62, 9.21, repro,